New Castle, PA

1:00 AM EDT on June 24, 2017 (GMT -0400)
New Castle Municipal

Weather History for KUCP - April, 2014

Change the Weather History Date:

Saturday, April 5, 2014

  Actual Average Record
Temperature  
Mean Temperature 35 °F -  
Max Temperature 41 °F 55 °F 80 °F (1947)
Min Temperature 28 °F 33 °F 17 °F (1944)
Degree Days  
Heating Degree Days 30    
Moisture  
Dew Point 26 °F    
Average Humidity 68    
Maximum Humidity 81    
Minimum Humidity 49    
Precipitation  
Precipitation 0.00 in - - ()
Sea Level Pressure  
Sea Level Pressure 30.07 in    
Wind  
Wind Speed 13 mph (West)    
Max Wind Speed 23 mph    
Max Gust Speed 32 mph    
Visibility 10 miles    
Events      
Averages and records for this station are not official NWS values.
T = Trace of Precipitation, MM = Missing Value Source: NWS Daily Summary

Daily Weather History Graph

Daily Weather History Graph

Search for Another Location

Airport or City:

Trip Planner

Search our weather history database for the weather conditions in past years. The results will help you decide how hot, cold, wet, or windy it might be!

Date:

Astronomy

Apr. 05, 2014 Rise Set
Actual Time 6:58 AM EDT 7:50 PM EDT
Civil Twilight 6:30 AM EDT 8:18 PM EDT
Nautical Twilight 5:57 AM EDT 8:52 PM EDT
Astronomical Twilight 5:23 AM EDT 9:26 PM EDT
Moon 11:03 AM EDT (4/5) 1:01 AM EDT (4/5)
Length of Visible Light 13h 48m
Length of Day
12h 52m
Waxing Crescent, 34% of the Moon is Illuminated
Apr 5
Waxing Crescent
Apr 7
First Quarter
Apr 15
Full
Apr 22
Last Quarter
Apr 29
New

Hourly Weather History & Observations

Time (EDT) Temp. Windchill Dew Point Humidity Pressure Visibility Wind Dir Wind Speed Gust Speed Precip Events Conditions
12:56 AM 37.9 °F 28.9 °F 31.1 °F 76% 29.89 in 10.0 mi WSW 16.1 mph 26.5 mph 0.00 in   Overcast
1:16 AM 37.4 °F 28.5 °F 30.2 °F 75% 29.84 in 10.0 mi WSW 15.0 mph - N/A   Overcast
1:56 AM 37.9 °F 27.1 °F 28.0 °F 68% 29.91 in 10.0 mi WSW 23.0 mph 32.2 mph N/A   Overcast
2:56 AM 36.9 °F 26.5 °F 28.0 °F 70% 29.92 in 10.0 mi WSW 19.6 mph 31.1 mph N/A   Overcast
3:56 AM 36.9 °F 27.1 °F 27.1 °F 68% 29.93 in 10.0 mi WSW 17.3 mph 27.6 mph N/A   Overcast
4:56 AM 35.6 °F 26.6 °F 28.4 °F 75% 29.89 in 10.0 mi WSW 13.8 mph 19.6 mph N/A   Overcast
5:56 AM 36.0 °F 27.1 °F 28.0 °F 73% 29.96 in 10.0 mi WSW 13.8 mph 21.9 mph 0.00 in   Overcast
6:56 AM 34.9 °F 26.2 °F 27.1 °F 73% 29.99 in 10.0 mi WSW 12.7 mph 23.0 mph N/A   Overcast
7:20 AM 35.6 °F 27.5 °F 28.4 °F 75% 29.94 in 10.0 mi WSW 11.5 mph 21.9 mph N/A   Overcast
7:47 AM 35.6 °F 25.9 °F 28.4 °F 75% 29.95 in 10.0 mi West 16.1 mph 21.9 mph N/A   Overcast
7:56 AM 35.6 °F 26.6 °F 28.4 °F 75% 29.95 in 10.0 mi West 13.8 mph 19.6 mph N/A   Overcast
8:06 AM 35.6 °F 27.1 °F 28.4 °F 75% 29.96 in 10.0 mi West 12.7 mph 19.6 mph N/A   Overcast
8:56 AM 34.9 °F 27.7 °F 26.1 °F 70% 30.05 in 10.0 mi West 9.2 mph 18.4 mph N/A   Overcast
9:56 AM 34.9 °F 26.2 °F 27.1 °F 73% 30.08 in 10.0 mi West 12.7 mph 21.9 mph N/A   Overcast
10:56 AM 34.0 °F 24.2 °F 26.1 °F 73% 30.12 in 10.0 mi West 15.0 mph 20.7 mph 0.00 in   Overcast
11:56 AM 32.9 °F 24.7 °F 24.1 °F 70% 30.17 in 10.0 mi West 10.4 mph - N/A   Overcast
12:56 PM 34.9 °F 27.7 °F 26.1 °F 70% 30.17 in 10.0 mi West 9.2 mph 18.4 mph N/A   Overcast
1:14 PM 35.6 °F 27.1 °F 24.8 °F 65% 30.10 in 10.0 mi NW 12.7 mph 18.4 mph N/A   Mostly Cloudy
1:56 PM 37.4 °F 28.9 °F 24.8 °F 60% 30.10 in 10.0 mi WNW 13.8 mph - N/A   Mostly Cloudy
2:56 PM 37.9 °F 30.0 °F 25.2 °F 60% 30.19 in 10.0 mi NW 12.7 mph 18.4 mph N/A   Mostly Cloudy
3:56 PM 41.9 °F 35.4 °F 26.1 °F 53% 30.19 in 10.0 mi WNW 11.5 mph 17.3 mph N/A   Mostly Cloudy
4:56 PM 41.0 °F 34.7 °F 24.8 °F 53% 30.13 in 10.0 mi NNW 10.4 mph - N/A   Mostly Cloudy
5:56 PM 41.9 °F 35.9 °F 24.1 °F 49% 30.21 in 10.0 mi NW 10.4 mph - N/A   Partly Cloudy
6:56 PM 41.0 °F 34.7 °F 23.0 °F 49% 30.22 in 10.0 mi NW 10.4 mph - N/A   Clear
7:56 PM 37.4 °F - 23.0 °F 56% 30.16 in 10.0 mi Calm Calm - N/A   Clear
8:56 PM 36.0 °F - 23.0 °F 59% 30.25 in 10.0 mi Calm Calm - N/A   Clear
9:56 PM 32.9 °F - 23.0 °F 67% 30.28 in 10.0 mi Calm Calm - N/A   Clear
10:56 PM 29.1 °F - 24.1 °F 81% 30.28 in 10.0 mi Calm Calm - N/A   Clear
11:56 PM 28.0 °F - 23.0 °F 81% 30.29 in 10.0 mi Calm Calm - N/A   Clear